Theta_e
308 309 309 311 310 309 309 309 309 308 309 309 308 308 309 308 305 302 312 315 312 312 314 315 320 322 324 328 331 334 334 338 339 337 335 332 332 342 348 354 357 357 357 360 360 357 358 359 360 360 363 364 360 358 354 357 353 352 352 349 347 346 345 344 347 353 353 355 354 356 356 356 353 352 351 353 355 359 361 359 358 358 359 358 356 355 355
309 310 310 310 309 309 309 309 310 310 309 308 308 308 310 309 309 310 310 315 310 313 314 316 320 324 324 328 334 333 333 336 338 336 334 333 340 339 339 351 356 357 358 359 360 357 355 355 358 359 356 359 357 355 353 350 348 350 352 349 348 345 345 345 349 353 352 353 357 357 358 353 352 354 356 359 360 360 361 362 362 362 362 359 358 357 355
307 309 310 311 310 309 307 309 310 311 312 309 309 308 309 311 310 310 310 311 312 317 321 320 320 324 329 330 327 326 329 337 336 338 339 341 339 334 332 354 354 357 359 359 359 357 357 355 356 358 357 358 359 354 351 350 349 348 349 349 350 348 348 349 352 355 353 352 354 356 357 354 354 356 359 355 358 360 361 361 361 363 361 358 358 358 357
304 308 308 308 309 309 308 308 310 310 311 311 310 307 310 309 308 309 309 309 310 317 322 321 324 322 326 325 327 330 332 335 336 336 338 338 340 338 335 351 356 356 356 357 357 357 358 359 359 360 361 361 360 356 354 352 353 353 351 349 349 349 350 350 355 356 354 355 356 356 357 357 358 359 360 359 359 359 360 358 362 361 359 359 360 359 357
302 308 309 308 307 306 303 304 311 312 314 317 317 314 324 321 320 311 307 309 320 321 323 319 323 326 325 327 327 330 332 338 337 337 339 339 338 337 334 345 354 354 355 356 357 356 358 359 359 359 361 360 358 358 356 356 356 353 350 349 349 352 355 355 357 357 357 357 357 357 357 358 357 358 358 358 358 358 358 360 360 359 358 358 355 355 354
303 306 309 309 305 296 300 318 317 318 316 315 314 317 321 324 320 314 320 319 324 324 323 319 319 324 326 327 333 332 332 331 332 334 339 339 338 337 335 341 354 356 356 356 356 357 358 358 358 361 361 359 358 358 358 357 355 354 352 351 353 354 356 356 356 357 357 357 356 357 358 358 358 358 358 357 358 360 360 360 359 358 358 357 357 357 354
302 307 307 302 296 298 313 321 322 323 320 321 317 321 325 325 323 323 320 321 324 324 322 324 324 326 329 329 329 330 332 334 332 335 336 341 341 338 336 338 353 356 356 357 356 356 357 357 359 359 359 358 358 358 358 356 357 356 356 355 354 353 354 354 355 356 357 357 356 356 357 358 358 357 357 357 358 359 359 358 356 356 356 356 356 356 355
307 304 303 293 296 311 317 318 322 324 323 320 320 318 325 325 324 324 324 324 324 323 322 323 329 326 328 327 332 333 339 335 336 333 338 340 340 339 335 330 346 356 356 355 355 356 358 358 358 358 356 357 356 357 358 357 357 358 356 355 353 353 352 352 352 355 357 356 356 357 357 357 356 356 356 357 357 358 358 358 358 358 358 357 356 356 355
300 302 301 301 311 310 314 316 317 318 315 317 316 313 319 324 327 326 326 328 328 324 325 327 327 329 327 330 332 334 335 338 335 333 338 340 339 337 337 337 337 354 356 355 354 357 356 357 358 357 357 357 356 356 356 356 357 357 356 353 352 351 351 353 354 356 356 356 356 357 357 355 356 355 357 357 358 358 356 356 356 356 356 358 357 356 355
307 301 300 300 300 298 307 316 321 322 323 323 324 320 317 325 326 327 327 327 328 328 325 324 326 329 326 323 329 335 335 332 328 333 340 342 344 344 342 344 344 348 354 354 354 354 354 354 355 359 360 358 358 356 355 356 356 355 355 354 354 353 352 354 355 354 354 356 355 355 356 355 355 356 358 358 357 357 354 354 356 356 359 356 357 355 353
304 302 299 298 298 303 314 317 320 322 324 324 324 317 312 323 326 327 329 327 329 328 326 327 327 323 320 321 328 335 334 331 330 330 334 338 340 344 344 342 345 346 351 354 353 354 354 352 355 358 359 358 356 355 354 353 353 353 354 354 353 353 353 355 355 355 357 357 356 356 355 355 356 356 357 357 358 360 359 357 357 359 355 353 354 352 351
304 303 300 299 305 304 313 318 320 321 325 325 320 305 307 320 327 329 329 327 326 328 329 328 327 324 321 323 329 333 332 331 332 334 335 336 337 341 343 342 343 347 357 355 352 352 352 355 358 358 357 356 356 354 352 353 353 353 354 355 357 357 356 357 357 358 358 357 357 357 356 355 357 360 360 358 358 359 359 358 355 354 354 349 347 349 349
306 305 303 305 307 317 319 319 320 323 324 320 308 302 315 326 328 329 330 328 327 328 326 327 325 332 333 337 340 338 335 333 332 333 337 338 338 340 342 342 346 348 353 351 351 354 356 358 357 357 356 356 355 355 354 352 351 353 355 356 357 358 358 358 359 359 359 359 358 357 357 357 360 359 360 359 359 357 358 359 358 356 355 353 347 347 348
303 303 301 302 308 316 323 322 323 324 317 306 304 320 329 328 327 331 331 330 330 329 327 327 332 333 334 334 339 338 335 334 338 338 337 338 337 336 339 344 347 349 348 351 354 355 358 357 356 356 356 356 355 354 352 351 353 356 357 357 357 357 357 357 356 357 357 359 358 357 359 359 357 357 360 361 355 356 360 357 353 354 354 355 355 357 353
307 304 300 298 294 313 323 322 321 322 314 316 323 328 330 331 329 329 330 332 332 329 326 329 331 333 334 334 331 330 334 336 337 338 341 342 338 337 342 347 348 346 348 350 352 355 355 355 356 356 356 354 353 353 351 352 354 356 355 354 356 357 358 356 356 355 357 355 356 355 355 356 354 354 357 358 356 359 354 351 352 351 350 353 354 354 357
302 300 298 298 312 318 324 322 314 320 323 328 327 328 327 332 331 330 331 332 334 335 333 331 332 333 335 332 330 332 334 336 337 340 341 343 344 344 345 346 346 348 349 350 354 357 354 357 359 357 357 355 354 352 353 356 354 354 355 355 357 355 355 354 354 354 354 353 353 352 352 354 354 354 353 354 354 353 352 353 353 353 355 351 352 350 347
309 306 309 317 322 323 324 324 325 326 328 330 330 329 329 329 330 334 331 331 333 334 334 334 334 334 334 332 329 331 335 336 337 338 342 343 343 343 342 345 350 349 348 349 351 352 353 355 357 360 357 355 355 353 356 359 358 356 356 355 354 353 352 351 351 350 351 350 348 348 348 348 351 351 349 351 352 356 358 352 352 349 350 349 351 351 355
318 319 319 321 322 324 324 326 327 326 327 328 328 327 328 331 332 333 331 334 334 335 336 335 335 336 337 331 335 335 337 340 342 344 343 343 343 343 342 346 351 356 356 354 352 350 351 353 355 360 357 355 356 356 356 359 358 358 355 354 354 353 349 348 346 346 345 344 345 348 346 347 346 348 346 346 347 351 348 347 349 350 351 349 347 349 352
307 303 319 319 320 322 323 325 328 329 329 328 330 331 332 333 335 334 334 335 335 335 338 338 337 337 337 342 341 342 343 342 341 339 338 340 341 344 346 351 354 355 352 350 350 350 349 351 354 354 355 355 356 358 359 354 354 357 356 355 354 352 351 344 345 348 345 342 342 343 344 344 344 343 348 344 342 348 347 342 343 343 345 346 345 344 348
310 311 317 320 322 323 326 326 325 326 328 328 329 329 332 335 336 336 338 337 334 337 336 337 340 336 338 338 340 338 338 339 343 343 341 342 348 352 354 354 353 351 351 350 349 348 350 351 354 352 352 352 354 353 351 351 354 355 356 352 348 347 343 342 345 343 341 342 343 339 339 341 341 339 341 342 342 345 348 343 342 342 341 345 342 340 342
315 317 318 320 321 323 324 325 327 327 327 328 328 330 332 333 334 338 339 339 336 338 338 338 338 338 337 338 339 339 340 345 342 344 345 350 354 355 353 352 352 353 352 349 350 349 350 351 351 352 350 349 351 351 352 355 357 353 350 349 348 344 341 340 344 349 338 340 341 340 342 349 346 344 345 345 350 346 339 340 339 336 337 337 339 337 338
308 310 315 317 312 313 319 322 324 325 328 329 329 330 330 332 334 336 337 339 341 341 341 341 338 341 337 338 341 337 339 342 346 349 350 354 354 355 353 352 352 354 355 354 351 352 353 353 351 353 353 355 353 350 354 356 357 357 357 352 351 344 343 340 339 340 338 338 342 346 339 340 343 339 324 311 320 347 338 321 310 307 315 331 329 336 340
307 313 317 320 319 319 321 323 327 328 328 329 330 328 330 331 335 336 338 337 338 340 342 342 342 341 343 340 342 339 337 336 344 349 355 353 352 349 348 347 350 351 352 354 354 354 354 355 354 353 354 352 356 356 359 358 356 357 355 352 348 351 353 345 344 347 342 341 348 351 349 345 347 345 342 336 303 305 317 314 308 298 297 300 306 310 324
318 319 319 320 319 317 320 324 327 329 330 329 330 329 331 332 335 337 338 339 337 337 340 341 344 344 344 344 344 336 335 336 337 336 339 344 345 346 343 337 335 343 353 354 353 354 353 353 352 352 350 352 357 353 357 357 359 357 354 360 353 349 345 345 352 352 346 349 346 349 355 353 352 350 347 346 344 307 301 307 304 299 298 297 297 299 301
317 323 323 323 323 324 325 327 328 329 331 331 330 331 331 332 335 338 338 339 339 337 339 340 345 347 347 344 342 339 337 334 335 337 337 336 342 339 339 339 336 335 336 349 355 354 353 351 350 349 350 350 352 351 357 356 356 355 355 353 349 350 351 352 350 352 346 350 350 348 345 350 351 351 347 342 343 343 330 302 303 302 300 297 296 296 297
324 326 327 327 326 325 327 327 327 329 330 331 331 332 334 335 336 338 338 339 339 340 341 342 344 345 345 342 339 338 338 338 338 340 340 339 341 341 341 340 339 338 339 348 351 351 350 350 349 348 349 349 351 353 350 352 352 354 354 352 350 351 351 352 351 353 351 351 348 350 354 352 347 347 347 346 345 344 343 339 338 318 300 297 298 301 296
325 328 325 323 321 322 325 324 323 328 329 330 330 331 333 335 337 338 339 340 339 340 341 343 345 343 340 339 337 337 337 340 342 340 343 341 341 343 345 346 348 349 349 347 346 347 347 346 345 345 345 346 350 352 351 352 354 353 353 351 349 348 349 350 353 350 347 348 347 352 348 348 347 346 346 348 345 342 343 340 341 341 346 333 305 300 315
325 327 327 320 319 321 324 327 329 329 330 331 331 331 332 334 336 337 335 337 339 340 340 343 344 343 340 340 340 338 340 340 338 338 342 342 345 350 352 350 350 349 346 345 344 344 344 344 343 343 344 348 350 353 350 349 351 350 351 350 348 348 346 345 347 348 347 351 349 347 346 344 345 343 344 344 339 341 340 343 341 339 342 344 338 311 303
326 325 326 326 326 327 329 329 329 328 330 331 333 332 333 333 334 335 334 334 337 339 340 339 341 343 340 337 337 335 336 337 337 337 339 343 347 346 347 348 347 347 346 344 343 344 343 343 342 341 343 350 352 352 348 348 348 348 347 345 346 345 345 345 347 345 345 346 348 346 340 341 343 345 342 342 343 342 343 345 341 341 343 341 339 332 320
324 326 324 324 325 325 326 325 326 328 328 330 331 331 332 332 332 334 334 335 336 337 339 340 335 336 341 338 338 338 338 340 340 340 340 343 345 346 346 346 345 344 343 343 342 342 341 340 340 340 342 344 348 349 346 348 345 346 343 342 341 340 340 342 344 344 347 348 341 340 349 342 348 346 343 342 342 342 341 340 339 337 339 338 337 334 334
325 325 324 324 324 326 325 326 328 328 328 330 331 331 331 332 332 333 333 335 338 338 340 338 336 336 338 339 338 338 337 335 334 336 339 340 344 345 345 344 341 338 339 339 341 341 341 340 340 340 345 344 343 348 348 345 344 344 345 342 338 335 333 334 338 344 341 340 341 340 341 339 339 340 339 339 338 338 337 337 337 337 337 335 331 330 330
324 323 323 323 324 326 326 327 327 327 328 331 329 330 330 330 331 332 331 332 336 337 338 338 337 338 338 340 340 339 336 336 338 338 340 341 342 343 344 344 342 341 341 342 342 341 341 340 339 341 345 345 344 344 344 343 344 341 338 340 338 337 337 334 337 339 339 340 339 338 338 336 335 337 336 336 336 336 335 335 334 335 334 332 329 328 328
324 321 320 323 325 325 324 326 326 327 328 329 330 332 332 332 334 333 332 333 335 336 336 337 336 336 337 337 336 335 336 336 335 336 337 338 339 341 342 343 342 342 342 341 342 342 340 338 338 341 343 343 341 340 340 341 341 340 339 339 339 339 340 337 335 337 338 337 335 336 336 336 336 335 334 335 335 335 334 333 333 333 333 331 329 328 326
323 322 323 325 325 325 324 325 327 327 329 331 332 332 333 333 334 334 334 335 336 334 333 333 336 337 336 335 335 335 335 334 332 333 335 336 337 338 339 340 340 340 340 340 339 338 338 338 339 339 339 340 339 338 339 341 340 340 341 339 338 336 337 336 338 336 335 335 335 337 336 336 334 333 333 333 333 333 332 331 331 330 330 329 329 328 320
327 326 327 327 328 329 329 328 328 328 328 328 329 331 332 333 333 334 335 333 333 333 332 335 335 334 334 333 333 333 333 332 332 332 334 335 336 337 338 336 336 336 336 336 336 335 335 336 337 337 338 338 339 338 338 338 339 339 339 338 337 336 336 335 335 334 333 334 335 333 333 332 331 332 332 331 330 331 329 328 327 327 327 326 327 329 327
326 326 326 328 329 330 330 331 330 330 329 330 330 330 331 332 333 331 332 332 333 335 333 334 334 333 331 331 331 332 331 333 333 334 334 335 336 337 336 334 333 332 332 332 334 335 335 335 335 335 335 334 335 336 335 337 338 337 338 335 335 334 334 334 334 334 333 332 332 332 331 331 330 329 328 329 328 327 326 325 325 325 325 324 324 325 325
328 327 328 329 329 330 331 330 332 332 331 331 331 331 332 332 331 332 332 332 333 333 333 333 332 330 330 331 331 332 332 332 331 331 333 334 334 333 333 332 332 330 330 329 332 335 337 336 334 335 335 336 334 335 336 337 337 336 337 333 332 331 330 330 330 331 331 332 330 330 331 330 329 327 328 326 325 324 324 323 323 323 323 322 322 322 322
327 327 328 329 330 330 330 332 333 333 332 332 332 332 332 332 333 332 332 332 331 332 331 331 331 331 331 331 330 329 328 329 328 329 330 330 331 330 330 330 329 330 328 328 333 333 334 335 334 334 333 332 332 331 333 334 334 332 330 329 329 329 328 328 328 327 328 328 329 328 327 326 325 325 325 324 324 323 322 322 321 321 321 320 321 321 320
326 328 328 329 330 330 330 332 333 334 332 332 331 330 331 332 332 331 331 331 332 332 330 328 329 329 328 327 327 328 328 329 329 328 327 328 328 327 326 327 327 328 330 332 331 331 333 333 333 332 332 333 333 330 331 331 333 333 330 330 328 326 326 327 327 326 326 327 325 325 325 324 323 322 322 322 322 323 322 321 319 320 319 319 319 319 318
326 327 327 327 328 330 331 331 332 332 333 333 331 329 330 330 330 329 329 330 332 333 332 332 330 329 327 326 325 325 327 328 329 329 328 327 327 326 325 326 328 329 330 330 329 328 330 330 331 331 332 333 330 328 331 331 331 328 328 326 326 325 325 325 325 324 324 324 323 324 322 322 322 321 320 320 320 320 319 319 319 318 318 318 318 318 318
326 327 327 328 328 328 328 330 330 332 330 331 331 332 332 331 330 329 329 330 332 333 331 329 327 326 326 327 327 327 328 329 328 328 328 327 324 322 320 320 326 327 327 327 327 328 328 327 328 327 329 329 329 329 329 328 328 326 325 325 324 325 323 323 323 324 323 322 321 320 320 320 320 319 319 319 318 318 319 317 317 317 316 315 315 316 316
326 328 326 326 327 329 330 330 331 330 331 332 332 333 332 332 330 329 329 329 329 328 328 328 328 326 326 326 325 325 324 324 324 324 325 325 322 320 319 320 326 327 328 330 328 326 325 325 324 323 323 325 327 328 330 327 324 323 322 322 322 322 322 321 321 321 323 322 320 319 319 319 318 317 317 317 317 316 315 316 315 315 315 315 314 314 314
326 325 326 326 327 329 330 330 329 328 329 330 330 330 329 330 329 328 327 327 326 326 326 326 327 326 325 324 323 322 321 323 323 322 322 322 323 324 322 323 326 328 326 327 325 323 322 322 321 319 320 321 323 324 325 323 322 322 321 321 321 320 319 319 319 319 319 318 318 319 317 317 316 316 316 315 314 314 314 313 314 314 313 313 314 313 313
327 326 326 326 325 327 329 329 328 328 327 327 330 330 329 328 328 327 326 326 326 326 326 325 325 325 324 323 321 321 321 321 321 321 319 318 319 323 325 322 321 322 325 321 320 319 317 316 317 321 320 322 322 319 318 316 315 315 315 315 315 316 316 317 317 316 315 316 315 315 315 316 316 315 315 314 312 313 313 312 312 312 313 312 312 313 312
327 325 327 327 328 328 328 329 326 326 327 329 329 328 328 327 326 325 324 324 323 323 324 323 324 323 323 322 322 322 324 324 323 320 317 315 314 315 320 321 319 319 318 318 316 314 314 316 320 324 325 318 321 318 314 312 312 311 312 311 311 311 312 312 313 313 313 312 314 314 315 314 314 315 314 313 313 312 312 310 311 312 312 312 311 311 311
324 326 326 327 328 328 327 327 327 328 327 326 325 325 325 325 323 324 324 323 322 321 322 323 323 323 324 322 322 322 320 319 319 321 322 319 316 316 318 317 315 315 316 316 314 314 315 319 321 324 324 323 317 315 313 312 311 310 310 310 310 310 311 311 312 312 311 311 312 313 314 313 313 313 313 313 313 313 312 312 311 312 312 311 310 310 311
325 327 326 327 328 328 327 327 327 326 325 323 321 321 323 323 323 322 322 323 323 322 322 322 322 323 323 323 321 319 317 317 317 318 318 317 318 316 316 317 318 318 317 316 315 316 317 318 319 323 321 321 317 315 313 312 312 311 310 310 309 309 309 310 311 311 310 310 310 311 313 313 311 310 312 312 312 311 311 310 310 311 310 308 307 309 310
324 323 323 325 325 326 326 326 324 323 323 321 320 321 322 323 322 322 322 322 322 323 322 321 322 320 322 319 318 316 315 313 308 309 311 309 310 311 312 313 314 318 317 317 316 317 320 322 323 322 325 319 316 315 316 314 313 313 313 312 312 311 311 310 310 310 310 310 310 310 309 309 309 308 309 309 309 308 309 309 308 309 308 307 308 309 309
323 323 323 322 322 323 323 323 321 320 319 321 320 320 321 321 321 321 322 323 323 321 320 320 320 319 319 320 320 319 319 319 315 309 312 312 313 313 314 315 316 317 316 315 316 316 318 322 323 326 320 317 316 316 314 314 313 313 313 313 313 312 313 312 312 312 311 311 311 310 310 310 310 310 309 309 309 309 309 309 309 308 308 308 309 309 309
323 322 322 321 321 321 320 320 320 321 320 320 319 320 321 321 318 318 319 319 319 319 318 318 318 320 318 317 317 318 318 318 318 318 318 317 316 317 315 316 318 317 317 317 318 316 318 319 317 317 316 316 315 314 314 315 315 314 314 313 313 313 312 313 313 313 313 312 312 311 310 311 310 310 310 310 310 310 309 309 309 309 312 310 308 308 308
321 321 320 320 320 321 321 321 320 321 321 321 320 320 319 317 317 318 317 318 318 317 316 317 316 316 316 316 316 317 318 318 318 318 316 317 318 317 317 317 317 318 319 317 317 316 316 316 316 317 317 316 316 315 313 314 315 314 314 313 314 313 312 311 312 312 312 312 312 311 312 311 311 311 311 310 309 309 308 310 309 310 309 308 308 309 308
321 321 321 318 317 317 318 320 320 320 322 321 322 320 318 317 317 316 317 319 317 315 314 314 313 314 315 315 315 315 316 316 317 317 318 319 319 318 318 318 317 317 317 317 316 319 317 317 317 317 316 315 315 315 321 319 315 315 315 316 317 314 315 314 313 312 313 311 311 312 311 311 311 310 310 310 310 310 309 309 308 308 308 308 309 308 308
Wind_Speed
16 14 14 16 14 15 15 18 20 18 16 14 13 12 11 7 6 7 5 6 9 10 13 5 12 8 8 11 7 6 8 6 9 6 9 8 12 8 7 9 8 8 9 9 9 10 8 6 6 5 4 3 6 7 5 4 7 11 14 9 7 6 7 6 2 4 5 7 9 7 6 6 7 5 5 5 7 7 3 3 4 5 6 6 7 6 5
11 12 12 12 14 16 15 16 19 16 13 17 16 15 13 12 12 9 6 9 11 12 8 6 12 12 12 11 12 10 7 4 8 8 6 10 4 8 8 8 10 10 10 9 10 12 11 9 9 5 6 5 7 7 6 8 9 6 11 12 11 8 3 5 3 3 4 6 7 7 6 5 5 4 5 5 5 4 3 3 4 4 4 5 5 5 5
10 12 11 12 13 15 17 17 14 14 18 15 18 17 15 13 12 13 11 11 10 3 9 6 10 2 14 17 15 13 12 10 9 7 6 5 6 10 13 6 9 10 10 10 10 11 12 13 12 10 9 8 9 10 9 8 9 9 8 6 7 5 4 5 4 4 4 5 6 6 5 5 5 4 5 4 4 3 3 3 4 3 3 4 4 4 5
7 8 9 12 12 17 18 18 11 18 18 19 15 10 9 10 12 12 10 8 5 9 11 10 5 8 17 12 13 11 8 10 8 6 5 5 7 9 5 8 8 10 10 11 11 11 10 8 9 8 7 6 8 10 10 9 6 6 6 7 7 7 6 5 5 5 5 5 6 6 5 5 5 4 3 4 3 3 4 6 4 2 4 4 3 4 3
7 8 9 12 11 13 15 13 8 12 16 19 26 8 17 18 21 7 9 4 11 7 6 8 12 19 15 13 13 12 10 10 9 6 3 7 6 7 3 12 7 10 10 10 10 11 9 8 7 8 7 7 8 9 8 6 6 7 8 8 8 7 9 9 8 6 6 6 6 7 6 6 5 5 5 5 5 5 6 4 3 4 5 4 4 2 3
7 9 8 8 7 11 6 9 9 12 14 17 16 14 20 22 14 11 14 9 11 13 6 5 9 12 11 10 6 6 7 7 7 6 3 6 8 8 5 13 6 8 9 9 9 9 9 9 9 7 8 9 9 8 7 7 8 7 8 8 7 8 8 7 7 5 5 5 5 6 6 6 5 5 5 6 5 4 3 2 3 3 3 3 2 2 2
7 8 9 7 5 6 5 8 12 15 12 14 10 13 18 20 22 19 14 16 16 14 13 14 12 9 12 12 9 9 9 9 7 8 8 10 10 8 9 13 5 8 9 10 10 10 9 10 9 8 9 10 9 9 8 8 7 8 8 8 7 7 6 6 5 5 4 5 5 6 6 5 5 5 5 4 4 3 2 2 3 3 4 3 2 2 2
6 3 2 2 2 7 6 7 12 14 10 15 13 5 14 18 18 15 15 12 9 11 11 9 8 2 12 8 8 7 7 5 7 9 9 10 10 11 11 7 14 7 10 10 10 10 9 10 9 9 11 10 9 9 8 7 6 7 8 8 8 6 7 6 5 5 6 5 5 5 5 5 5 6 5 5 5 4 4 3 3 3 2 3 3 3 2
7 2 4 8 5 10 5 5 11 13 10 13 11 7 8 14 13 12 10 13 13 10 6 3 9 1 5 8 5 6 7 6 9 9 12 12 11 10 10 11 11 4 8 10 10 9 9 9 9 9 10 11 10 9 8 6 6 6 7 8 7 7 7 6 5 4 3 3 3 4 4 5 5 4 5 4 3 3 2 3 3 4 3 1 0 2 2
6 1 4 6 6 5 3 2 8 11 11 10 9 8 4 11 13 12 12 11 11 10 2 5 8 0 3 4 5 7 9 8 10 11 13 15 15 12 9 7 3 5 4 9 9 10 11 11 11 9 9 10 10 9 7 6 6 6 6 6 6 7 6 5 5 5 4 4 3 3 3 4 4 3 3 2 2 3 3 3 4 2 3 2 1 1 3
2 6 4 6 6 1 2 7 10 9 5 9 9 8 3 5 12 13 11 12 11 10 8 7 5 6 7 6 7 9 11 9 9 11 12 13 11 13 11 8 7 7 7 8 10 10 11 12 9 10 11 10 10 9 7 5 4 5 6 7 6 5 6 6 6 5 5 4 4 4 3 3 2 3 2 2 3 4 4 3 2 1 1 1 1 2 2
7 6 7 4 5 1 3 8 10 12 7 8 6 4 1 7 12 13 13 12 10 10 10 6 5 6 3 5 8 12 14 11 10 13 13 11 11 10 11 10 9 7 5 7 10 10 11 10 10 10 10 10 10 9 7 5 4 4 5 6 6 5 5 6 6 5 4 3 2 2 2 1 2 2 2 1 2 2 1 0 1 1 2 2 3 4 3
3 7 6 4 3 5 6 9 8 7 7 4 1 3 5 10 11 10 9 8 6 8 11 12 8 3 4 5 4 9 12 10 13 13 13 12 11 11 10 8 9 7 7 8 10 10 10 10 10 10 9 10 10 8 6 4 4 5 5 6 5 5 5 5 5 5 4 4 3 2 2 3 1 2 1 1 1 1 1 1 1 3 3 5 8 8 5
4 5 6 6 3 2 8 4 11 9 3 1 2 4 7 9 9 7 6 5 9 3 4 10 11 7 4 14 12 7 8 14 11 10 12 13 13 11 9 8 7 8 8 9 10 11 10 10 10 9 10 9 9 9 8 6 5 5 6 7 7 7 6 5 5 5 5 4 4 4 3 3 3 2 2 1 1 2 1 1 1 2 1 1 1 3 4
2 3 2 6 6 2 12 8 8 9 2 4 5 8 9 8 10 9 8 7 10 11 6 13 15 16 11 14 10 6 11 14 15 14 12 12 14 13 9 9 7 12 8 11 10 11 11 11 10 10 11 10 9 9 9 9 8 6 6 7 7 7 6 6 5 6 5 5 4 4 3 3 2 2 2 1 1 1 1 1 2 1 2 1 2 0 2
1 3 4 2 2 5 6 7 4 3 3 6 7 8 7 9 9 9 9 8 8 6 12 6 13 10 8 10 8 9 11 13 14 14 11 11 15 15 12 12 11 12 11 10 9 8 8 8 8 9 9 9 9 9 10 8 8 7 6 6 6 6 6 6 6 6 5 5 5 4 6 4 3 2 2 1 3 2 1 1 1 1 0 2 2 2 2
4 1 1 1 2 3 4 7 7 7 4 8 9 7 7 8 8 9 8 10 11 3 6 2 9 3 12 6 9 6 9 12 12 13 13 16 16 15 11 10 11 9 11 11 10 10 9 9 8 7 8 10 11 11 9 8 8 8 7 7 6 6 6 5 5 5 4 3 4 4 5 4 3 3 4 2 3 2 1 2 2 2 2 3 3 2 1
4 7 6 4 3 4 3 3 5 5 3 3 7 6 7 6 8 8 9 8 12 11 3 8 4 4 10 1 3 5 9 10 10 10 11 11 14 15 15 11 10 9 9 10 10 11 10 10 10 7 9 11 10 9 9 8 8 7 7 7 6 6 6 7 6 6 5 5 4 3 3 1 4 2 4 3 3 3 3 3 3 3 3 2 2 2 2
5 1 4 4 5 6 5 5 6 7 7 6 6 7 6 8 9 11 8 10 11 8 7 5 5 1 3 4 7 7 6 8 11 13 11 10 12 12 13 12 10 10 11 11 11 11 11 11 10 10 10 10 9 8 8 9 9 7 7 6 5 4 4 5 4 4 3 4 5 3 2 2 3 3 2 1 1 1 4 2 3 3 2 2 2 2 3
5 3 4 5 8 5 3 4 6 5 7 8 10 7 7 8 9 10 10 12 7 6 3 6 4 6 7 7 4 8 10 9 9 10 9 9 9 13 15 13 13 12 11 11 11 11 9 9 9 10 10 10 10 9 9 9 9 7 6 6 7 6 6 5 3 3 3 2 2 1 3 3 3 2 1 2 2 1 3 4 2 2 2 2 3 3 1
6 4 3 7 7 3 5 5 6 6 6 8 10 10 10 10 8 8 11 10 8 7 4 2 3 2 6 7 5 2 4 5 8 7 8 8 10 14 15 13 10 9 10 11 10 12 9 8 8 7 8 9 9 9 7 8 6 6 6 7 5 6 5 5 3 3 4 3 4 4 1 3 6 6 5 4 5 6 5 5 4 3 4 4 5 5 6
2 3 4 8 5 5 7 7 9 10 10 10 9 10 10 11 10 9 11 11 8 6 8 4 2 4 3 10 7 5 3 2 4 6 9 10 13 11 11 10 10 10 9 10 11 10 8 7 7 7 8 7 6 8 9 6 4 4 5 4 3 2 3 4 5 5 3 4 1 4 2 3 5 4 6 9 7 4 4 6 11 9 6 4 3 4 4
4 5 5 5 4 5 5 7 9 10 9 9 9 9 10 11 12 11 11 10 11 11 9 6 2 5 4 4 5 8 5 8 14 10 5 12 10 10 11 10 10 11 9 9 9 9 8 6 7 7 6 8 7 8 5 4 4 3 2 6 4 4 4 6 6 7 7 4 6 4 5 6 3 4 3 6 11 13 10 7 8 10 9 7 8 9 6
2 5 7 6 5 6 8 9 9 8 8 9 9 8 8 9 11 10 11 7 7 9 8 8 8 5 5 3 10 14 13 10 9 17 20 14 4 12 15 18 17 13 6 10 9 9 8 8 8 8 9 8 6 7 5 5 3 3 3 2 3 3 4 5 6 5 3 5 4 4 4 3 3 1 1 3 1 5 6 7 6 6 7 9 10 10 10
5 3 4 4 6 8 8 8 8 8 9 9 9 10 8 8 9 10 8 6 7 9 10 9 8 8 9 11 10 9 8 10 13 8 11 15 7 13 14 18 18 9 9 5 6 7 7 8 8 8 8 8 7 6 5 4 5 5 7 7 5 5 5 5 5 5 5 3 3 2 1 2 0 1 1 2 2 3 1 3 3 5 8 9 8 7 7
5 4 4 5 6 5 5 7 5 6 10 11 10 9 9 7 7 7 7 5 4 6 8 8 9 12 12 15 15 14 12 8 9 11 10 2 0 10 7 8 12 13 13 5 7 6 9 9 9 9 8 8 7 5 6 6 6 6 7 6 6 5 4 5 3 3 3 3 3 2 2 2 2 2 2 1 2 2 3 4 1 1 5 7 6 4 7
4 4 5 7 4 5 6 7 8 10 11 11 10 10 9 7 7 6 5 5 5 5 9 9 8 9 9 11 14 15 12 9 8 7 8 7 1 8 6 5 5 3 8 11 11 12 13 12 11 11 10 9 8 8 8 6 5 5 5 5 5 5 7 4 2 3 2 2 2 2 3 3 2 2 1 1 2 2 3 4 2 0 1 2 1 1 2
4 5 4 4 6 7 8 10 10 10 10 9 10 9 9 8 6 6 4 6 7 7 6 8 8 7 10 11 11 10 11 11 11 13 9 7 7 7 9 11 13 11 8 9 10 10 10 10 11 10 8 7 6 5 5 5 4 3 4 4 4 4 3 3 4 4 3 3 3 3 4 3 4 3 2 3 3 2 3 5 3 3 2 2 2 3 2
2 5 6 5 6 6 6 7 9 9 9 8 8 7 7 8 8 7 8 8 8 3 6 7 5 8 8 9 9 10 11 13 13 8 3 3 7 9 9 11 12 11 9 8 8 7 8 9 10 10 8 6 5 5 6 6 7 6 7 8 7 7 7 7 5 3 2 2 2 1 1 2 2 3 4 3 2 3 2 2 2 2 2 3 3 2 2
7 7 8 8 7 5 6 7 7 7 8 8 7 5 5 6 7 5 6 6 6 6 4 7 7 4 8 10 10 9 10 10 8 7 4 2 6 8 9 10 12 11 10 10 9 8 8 8 8 8 7 7 7 6 6 4 4 5 7 6 6 6 6 5 5 5 2 1 4 2 1 3 3 3 2 2 3 2 4 5 4 4 3 4 5 6 6
9 8 9 9 7 5 5 6 6 7 7 8 7 5 5 5 5 5 5 6 7 5 6 7 10 6 8 9 11 11 12 12 9 6 3 1 5 8 8 9 10 9 9 9 9 9 10 10 9 8 7 6 7 5 5 4 4 4 4 6 6 8 9 9 4 3 5 4 4 5 4 4 4 4 4 3 4 4 5 4 4 5 5 6 7 6 6
10 9 9 8 5 4 5 4 5 6 7 7 7 4 4 6 5 4 5 4 5 5 8 10 10 9 9 10 11 12 11 11 10 9 8 9 9 9 9 10 11 11 11 10 9 8 7 8 8 8 6 7 6 5 5 5 4 4 5 6 6 5 5 7 6 6 4 3 4 4 4 4 5 5 4 5 5 4 5 5 5 5 6 6 7 6 5
9 8 7 5 5 6 6 6 6 5 6 7 5 5 4 4 4 3 3 1 4 3 7 11 11 11 11 10 10 10 10 10 11 9 10 10 9 8 8 9 10 11 10 9 8 7 8 8 8 7 6 7 7 7 6 6 5 6 6 5 4 4 5 5 5 4 5 5 5 6 6 6 6 5 6 5 6 6 6 6 6 6 6 6 6 5 5
8 8 8 7 6 6 6 6 6 5 4 4 5 4 3 4 3 4 5 5 6 8 5 4 9 11 10 10 9 9 9 10 9 10 11 11 12 13 11 10 11 11 10 9 9 8 8 8 9 8 8 8 7 7 7 7 6 5 6 5 6 6 6 5 7 7 6 6 6 7 6 6 6 6 6 6 6 6 7 7 7 6 6 5 5 5 8
8 10 10 9 7 6 5 5 5 5 6 6 5 3 3 3 4 3 4 5 5 6 4 6 9 10 9 8 10 11 10 12 12 10 9 10 9 9 10 11 11 10 11 10 9 9 9 9 8 8 7 7 8 9 8 7 7 6 6 6 6 6 5 5 6 6 6 5 5 5 6 6 6 7 6 7 6 6 7 7 7 6 6 6 5 5 4
9 9 7 6 5 5 6 4 4 3 2 4 5 4 4 5 5 4 7 6 6 7 7 9 9 9 9 9 9 10 11 10 9 9 11 11 9 9 10 11 11 12 12 13 11 10 9 8 11 11 7 6 7 7 8 7 5 5 4 5 5 4 5 5 5 5 6 6 6 5 5 6 6 5 6 6 6 7 7 7 7 6 6 6 6 5 5
8 7 6 5 4 4 4 3 1 1 2 3 3 3 4 5 6 9 6 6 7 9 9 10 11 12 10 10 11 12 11 8 8 8 8 9 10 11 11 10 10 10 10 10 7 7 7 5 8 10 6 4 5 6 7 11 4 4 3 4 4 4 4 4 4 4 5 5 6 5 5 3 4 4 4 5 6 6 6 6 6 5 5 6 5 5 5
8 7 6 5 4 3 4 1 1 1 1 1 4 5 5 7 8 9 9 9 10 11 12 11 11 11 11 12 11 11 10 10 11 11 11 11 10 11 11 9 8 8 8 8 6 6 5 7 11 7 6 6 6 6 8 12 9 4 3 4 5 4 4 4 5 5 5 5 5 5 5 6 5 5 5 5 5 5 5 5 4 4 5 4 4 4 5
8 7 6 6 4 3 3 3 2 2 2 3 5 7 8 10 9 9 10 10 9 10 12 11 10 11 12 12 10 9 9 8 9 10 11 12 11 11 10 9 8 8 7 6 7 7 6 7 7 7 8 8 6 5 4 8 12 2 4 5 6 6 7 6 5 5 5 4 4 3 2 3 4 5 5 5 4 3 4 3 3 3 3 3 4 4 4
7 5 6 6 5 3 2 1 3 2 1 3 7 8 9 9 10 11 11 11 8 8 9 8 9 9 10 10 10 9 9 9 8 8 8 9 9 8 8 8 7 7 8 9 8 7 9 11 8 6 5 4 5 7 6 8 8 5 5 5 4 4 5 4 4 4 5 5 4 5 5 5 3 4 3 3 3 4 7 7 6 5 5 5 4 4 4
5 5 5 6 3 5 3 5 4 4 4 5 8 9 9 10 10 11 11 11 9 10 11 11 11 10 10 10 9 8 8 8 9 9 7 7 8 8 8 7 6 6 7 7 6 6 9 9 7 6 5 5 6 9 7 6 7 5 5 6 5 3 2 3 3 3 3 3 4 4 5 6 6 7 6 6 6 6 5 5 5 5 5 4 4 3 3
5 3 3 6 5 2 7 6 5 6 6 7 9 10 10 11 11 12 11 11 11 11 11 11 12 10 9 9 9 9 10 10 11 11 9 8 8 7 8 7 5 5 7 7 7 8 7 7 7 8 8 6 5 10 10 6 5 5 5 4 3 3 3 3 3 3 3 3 2 2 2 3 3 3 2 3 4 5 5 5 4 4 5 6 7 7 6
3 1 5 5 4 4 7 7 9 7 8 9 10 11 12 12 11 10 11 11 11 11 11 10 10 10 9 9 8 9 9 8 8 9 10 10 9 7 7 6 5 5 9 7 8 7 7 6 6 6 10 9 6 6 7 5 5 5 4 4 4 4 5 5 6 6 6 5 5 5 4 4 4 5 5 5 4 5 5 5 7 6 6 5 5 4 4
1 2 4 5 6 7 6 9 9 9 10 9 8 9 10 9 9 10 10 10 9 9 9 9 9 9 9 10 9 8 7 8 7 7 8 7 8 7 6 7 8 11 13 8 7 7 7 7 7 10 11 11 11 10 6 5 6 5 5 5 5 5 5 5 5 5 6 6 6 6 5 6 4 4 4 5 5 4 5 5 5 5 5 4 5 5 5
4 5 4 6 6 8 9 8 10 10 10 8 7 9 10 11 10 10 11 10 10 9 9 8 8 8 8 9 8 8 6 5 6 7 7 8 8 8 7 8 8 7 9 10 7 7 7 7 9 13 9 7 9 11 6 6 6 6 5 6 6 6 5 5 5 6 6 6 6 5 5 5 5 5 5 4 4 4 5 5 5 5 4 4 5 5 5
5 7 5 7 9 9 10 11 11 12 13 13 13 12 11 10 10 10 9 10 10 10 9 9 8 8 7 8 8 9 10 11 12 11 8 8 8 7 6 7 7 8 10 10 7 7 6 10 11 11 11 11 9 6 6 6 6 6 6 6 6 6 6 5 5 5 5 5 5 5 4 5 5 6 5 5 4 4 4 4 4 4 5 5 6 6 6
7 6 6 7 10 12 12 12 12 12 13 12 12 10 9 10 9 9 9 10 10 10 9 9 7 6 7 7 7 7 9 10 9 8 7 7 8 9 9 12 12 12 9 7 7 5 5 5 6 9 5 9 9 6 6 6 6 6 6 7 7 6 6 6 6 6 5 5 6 5 6 6 6 6 6 5 6 6 6 6 5 5 6 7 6 6 6
12 9 10 11 10 11 11 11 12 11 10 10 11 11 11 10 10 10 9 9 9 9 10 8 8 8 8 10 10 9 8 8 10 8 7 8 7 8 8 7 8 12 11 9 9 7 7 7 8 8 7 8 6 5 5 5 6 5 5 6 6 6 6 7 7 6 6 5 5 5 6 5 6 6 6 6 6 6 6 5 5 5 6 6 6 5 6
11 12 12 13 12 9 9 10 11 11 10 9 11 11 11 11 10 7 6 6 7 7 9 10 11 10 10 11 11 9 8 7 8 9 8 8 8 8 7 8 11 11 8 6 7 6 6 5 5 2 7 8 5 5 5 5 6 6 6 5 5 5 5 4 5 6 6 5 5 6 6 7 7 6 6 7 7 6 6 6 5 6 7 5 6 6 6
10 12 12 10 10 9 8 8 8 7 9 9 9 9 9 9 8 6 6 7 8 7 7 7 7 7 7 8 8 9 8 9 9 9 7 8 8 6 6 5 5 5 5 5 6 4 6 6 4 5 4 4 5 5 4 3 4 5 5 5 5 5 6 5 4 5 5 5 5 5 4 4 3 3 4 4 1 1 1 1 2 4 8 3 2 2 4
9 9 9 9 9 8 8 7 7 7 5 5 6 6 7 8 8 6 6 8 7 8 8 8 8 7 8 8 8 8 8 8 8 7 7 6 6 7 7 6 6 5 5 5 3 4 4 4 4 3 4 5 3 5 5 3 2 4 4 4 4 3 1 1 3 4 6 5 3 3 2 3 3 2 2 4 6 3 4 4 4 6 7 7 8 8 6
9 8 8 9 9 8 7 7 9 7 6 5 4 4 5 7 7 8 9 9 8 8 8 8 8 7 7 8 7 7 6 6 5 5 5 6 5 4 4 6 6 5 4 4 7 6 4 6 5 6 6 3 5 4 3 5 2 4 4 3 2 1 5 2 3 1 3 2 4 5 3 7 10 9 9 10 9 8 6 7 7 7 8 9 7 6 6
Wind_Direction
259 268 288 297 304 294 296 293 291 261 233 250 241 232 246 232 216 252 124 137 157 171 226 223 148 161 167 157 137 117 126 121 95 100 109 116 248 257 199 149 152 152 148 145 140 126 126 125 141 138 92 92 57 51 37 41 50 50 67 80 139 187 192 161 77 30 89 106 108 136 153 143 171 157 167 193 209 208 202 211 220 219 236 243 241 237 236
285 304 289 279 292 300 295 287 287 284 242 223 242 247 241 233 237 239 188 177 232 212 177 199 146 172 159 136 115 106 103 116 136 154 154 182 214 23 305 185 156 152 148 145 140 134 138 157 148 143 148 175 143 138 115 67 83 141 159 170 163 178 131 79 86 135 119 101 112 136 165 157 138 155 184 202 192 195 194 214 217 223 229 237 251 257 258
267 265 284 298 283 281 281 284 282 305 327 279 223 228 231 238 247 243 226 198 210 98 110 124 110 81 90 111 124 143 152 163 145 156 180 155 132 128 282 223 154 140 141 136 138 144 150 155 159 160 153 160 144 128 115 144 162 173 165 135 95 122 139 126 145 145 143 131 138 140 166 148 147 171 193 179 215 204 207 215 223 225 248 243 233 239 251
284 274 288 287 267 260 269 272 335 4 344 339 301 238 242 247 241 240 239 226 224 143 139 114 120 118 119 134 141 146 157 163 144 145 184 142 113 101 282 271 132 134 138 137 139 140 135 133 130 126 127 124 120 123 135 150 162 126 94 97 117 132 136 146 166 159 146 149 150 149 152 152 143 170 176 187 200 215 222 222 202 180 240 244 244 247 256
273 290 288 281 274 259 262 278 3 350 333 335 338 325 31 26 7 308 234 37 71 65 90 125 111 112 133 141 153 156 154 119 127 142 173 131 107 96 73 276 143 140 136 134 135 133 128 128 127 127 128 123 107 111 129 135 118 116 118 130 138 148 151 163 163 155 157 158 155 155 163 160 172 175 186 195 206 212 222 224 199 206 216 224 238 262 305
286 291 312 299 296 237 241 358 2 20 3 11 1 12 35 22 30 18 23 80 60 53 350 164 150 128 134 133 108 117 118 125 139 139 96 108 108 103 91 275 160 135 132 132 132 125 123 125 123 119 121 112 116 120 122 125 124 131 134 137 144 143 144 147 147 149 156 153 159 159 161 162 172 181 184 203 212 208 214 209 233 241 262 253 217 162 206
273 319 325 300 268 271 19 3 8 18 359 357 355 1 25 36 30 18 29 34 30 41 29 12 59 97 110 118 134 147 147 143 142 117 89 75 79 71 57 296 205 143 132 131 128 128 127 123 117 122 117 118 121 120 121 125 138 143 137 135 131 135 127 121 141 145 155 161 159 157 164 170 178 180 185 208 211 213 189 208 229 221 231 218 230 248 213
287 283 278 257 289 326 346 21 19 19 14 360 356 323 36 39 45 24 5 29 36 43 47 3 337 58 125 140 128 118 104 142 144 136 120 123 123 118 116 297 299 146 138 136 136 126 122 122 124 131 129 125 123 119 122 132 148 134 124 123 127 131 135 143 158 163 167 160 156 163 167 177 187 193 195 197 201 175 185 203 205 216 196 221 230 234 226
253 280 264 264 194 201 17 2 16 13 12 348 344 322 27 29 42 44 17 6 11 59 36 8 286 83 119 116 90 119 127 143 128 131 128 129 119 137 143 145 271 251 143 138 127 125 130 130 132 132 134 128 127 130 135 148 144 125 120 125 135 142 145 150 160 153 119 133 172 167 168 185 196 205 194 203 190 127 210 216 213 202 198 127 165 214 215
231 157 301 313 292 277 287 350 14 20 5 355 337 308 340 15 24 28 26 15 6 349 29 229 236 84 122 110 120 148 152 153 153 140 135 135 137 136 142 148 157 286 170 131 140 137 134 135 129 124 125 130 133 130 136 142 134 130 132 124 127 131 131 136 131 121 144 187 192 164 185 187 198 201 174 156 172 170 201 217 227 202 122 116 151 236 242
176 215 171 226 247 34 316 352 351 18 350 338 322 288 260 9 5 15 17 14 24 352 311 286 241 214 197 174 159 176 169 174 178 149 126 114 124 129 133 126 122 231 187 151 139 134 135 127 132 132 133 135 132 133 142 153 151 140 131 127 134 133 133 137 139 143 158 175 160 183 186 184 193 180 183 172 190 188 194 198 203 269 109 135 142 261 252
216 208 223 253 285 239 285 354 342 359 340 322 303 273 203 354 345 4 11 30 21 326 317 301 260 244 216 170 171 174 173 183 185 142 137 127 135 133 118 134 141 219 165 143 144 138 131 131 135 133 133 136 133 136 151 166 160 136 115 120 126 135 145 146 148 161 165 161 139 154 186 164 148 109 120 168 259 226 254 42 328 96 193 135 35 321 305
209 182 235 224 221 84 28 350 13 343 318 21 103 242 0 330 343 4 358 46 48 357 342 324 286 291 71 306 250 180 179 164 135 138 137 131 132 118 123 135 140 178 154 165 143 135 134 138 140 139 136 134 135 129 138 158 167 130 125 123 127 132 137 144 148 151 148 155 162 141 87 81 99 138 135 110 152 204 222 249 196 180 180 162 165 202 230
243 268 254 209 136 16 315 10 39 341 300 161 196 9 303 318 323 342 336 20 112 2 2 318 311 291 248 182 223 190 186 136 133 133 139 137 126 120 114 151 153 145 166 159 139 140 144 145 141 136 135 134 132 136 141 154 154 138 143 144 143 143 145 139 131 131 136 141 123 112 125 126 124 94 83 82 114 103 107 233 288 324 21 208 179 149 149
109 96 322 271 219 36 321 45 34 7 353 2 316 324 328 318 323 341 354 345 124 154 214 233 254 265 244 193 180 152 140 136 140 142 140 140 128 126 143 150 147 143 173 152 149 146 152 146 141 140 138 138 140 139 141 141 142 149 140 128 125 127 127 128 136 130 124 118 111 114 115 126 113 90 92 133 41 359 334 3 320 350 56 24 80 253 150
296 113 176 230 100 263 355 40 97 339 331 296 297 315 313 337 339 348 338 322 312 142 162 216 268 238 228 175 166 173 153 145 144 141 144 141 130 141 149 144 170 174 164 150 147 151 136 136 139 140 142 138 133 131 131 137 135 135 133 124 123 121 126 130 130 129 136 151 147 154 144 143 132 169 162 141 79 35 352 344 343 324 178 345 355 319 306
284 297 209 75 292 320 20 64 115 141 231 260 268 321 332 330 332 326 314 317 317 3 127 140 286 265 194 189 177 179 144 148 141 143 141 142 140 137 138 154 166 161 143 145 143 139 144 143 139 136 135 128 127 126 125 130 133 135 136 137 135 132 129 128 141 139 166 153 139 146 137 150 156 166 124 136 152 203 155 194 204 229 244 229 222 248 199
265 268 262 293 317 341 357 34 65 96 167 280 305 325 325 334 312 310 311 306 313 324 96 142 232 326 314 346 227 169 150 128 84 105 129 136 140 144 156 160 145 119 129 144 149 146 144 139 131 127 129 131 127 126 134 133 137 138 137 142 148 146 151 163 157 140 157 141 121 119 113 165 152 171 161 175 157 172 220 225 215 234 222 244 252 225 224
302 281 18 342 337 326 345 20 46 27 355 4 345 317 327 330 328 322 326 320 322 332 360 100 151 239 228 284 237 216 157 133 133 136 150 162 160 150 136 129 131 132 151 151 148 145 140 140 136 134 133 133 132 135 142 145 138 141 137 144 150 168 163 135 133 134 145 131 144 154 172 204 175 172 236 167 73 304 265 305 28 339 351 316 343 281 329
273 315 284 302 313 332 355 30 14 4 350 338 322 334 337 333 342 335 323 318 319 321 344 339 117 188 206 199 178 171 151 157 158 156 160 170 151 127 122 136 141 153 153 148 149 143 137 135 138 139 139 136 142 149 147 137 133 136 139 155 156 166 146 136 118 132 182 146 57 321 181 153 318 85 227 125 169 195 25 31 354 328 344 24 10 359 112
302 273 277 318 322 54 18 341 4 345 338 318 319 338 343 349 341 336 332 322 328 331 336 305 65 113 226 193 189 172 128 150 161 179 163 145 125 125 135 146 157 146 151 149 137 131 127 131 130 130 134 139 140 130 119 114 131 146 153 158 164 139 134 158 152 212 129 160 164 209 281 76 66 34 17 25 49 77 45 23 25 1 344 358 22 357 351
321 11 339 346 359 320 321 338 338 329 324 324 328 332 341 350 343 349 344 336 337 332 324 335 92 110 216 177 163 163 112 342 205 150 137 125 126 134 142 147 143 139 134 125 132 128 125 132 140 140 132 124 127 127 119 134 152 154 160 174 146 166 160 149 155 193 192 130 91 349 340 138 108 85 46 55 32 45 90 55 59 52 49 55 19 347 16
336 350 347 5 329 300 308 320 318 311 312 315 318 324 347 349 342 348 348 343 338 341 340 344 343 134 170 173 191 182 97 24 1 353 133 140 140 139 134 133 131 124 119 119 116 112 111 104 98 99 100 101 88 87 86 97 104 92 78 48 24 16 38 37 22 31 9 23 81 53 9 20 69 89 76 39 45 48 65 86 76 75 73 72 52 39 26
305 333 334 341 319 314 318 320 316 309 309 313 317 325 338 348 343 342 329 343 341 323 333 341 1 59 67 101 94 75 76 77 34 355 350 354 191 107 73 55 19 4 71 113 110 105 106 107 106 103 102 97 91 107 99 106 109 109 98 92 82 28 51 48 31 22 55 21 46 28 19 14 348 59 152 134 79 48 67 79 95 101 84 59 50 51 50
323 315 332 331 316 307 318 317 310 308 308 313 319 319 331 340 342 340 325 343 354 343 342 359 14 33 65 58 68 85 94 112 105 84 25 344 14 89 112 121 121 113 325 325 105 113 110 109 102 97 91 87 82 81 92 88 75 60 49 43 52 51 43 25 29 33 40 48 59 44 56 322 205 3 326 307 222 206 34 105 110 78 70 75 69 62 67
313 294 318 317 296 310 329 324 332 335 321 319 313 316 325 340 336 326 326 355 19 354 359 3 36 39 57 79 71 58 41 34 99 111 100 289 357 99 109 128 135 139 157 196 97 99 98 97 103 102 100 95 89 88 80 69 71 70 63 63 59 46 40 39 44 39 31 28 9 9 61 326 360 326 329 9 354 325 173 207 296 70 128 92 94 108 96
327 330 320 308 300 329 341 331 319 323 321 319 317 321 317 339 337 313 328 21 45 359 21 12 53 69 56 68 87 86 75 12 360 71 118 139 42 72 81 105 90 62 106 98 88 77 74 70 68 68 62 60 63 66 64 56 63 75 91 90 78 63 64 69 52 69 46 18 18 25 38 353 16 337 359 283 280 303 331 49 83 196 307 61 24 338 79
334 330 315 309 317 319 317 313 310 310 312 316 318 325 332 324 338 326 7 30 45 62 66 2 29 72 85 86 85 95 104 86 42 10 356 94 113 107 100 87 83 76 64 74 82 83 82 80 79 75 67 62 61 57 68 83 86 89 94 96 101 112 110 66 70 58 19 19 44 27 21 0 337 340 325 6 343 352 31 75 108 124 111 67 66 84 55
293 266 283 286 284 287 296 302 301 305 309 315 323 327 326 336 357 356 17 12 13 51 90 83 11 42 80 87 80 82 87 93 102 95 50 326 78 94 92 86 87 89 87 87 92 99 97 93 87 80 67 43 41 52 56 40 38 42 34 34 30 31 34 21 10 60 62 0 70 22 286 289 340 2 352 349 343 37 46 80 128 125 102 120 103 84 192
315 319 308 302 302 314 314 315 320 315 311 319 315 316 325 349 349 12 12 11 2 28 68 105 92 66 70 77 82 84 78 72 71 50 26 8 92 87 87 87 81 74 70 65 61 68 80 91 96 93 87 62 38 37 59 77 83 71 65 53 51 45 36 17 356 341 5 76 25 319 343 0 14 8 338 349 9 355 36 31 10 56 65 39 53 42 32
311 307 301 296 298 314 306 321 323 316 327 326 315 315 329 343 6 12 29 17 2 14 54 80 97 83 95 94 86 76 83 91 101 122 175 125 63 78 79 82 88 86 80 75 68 63 63 62 56 50 28 54 76 50 32 41 30 52 109 118 105 70 41 2 327 345 8 18 24 360 8 12 8 11 14 10 26 47 68 77 73 65 68 64 55 40 28
302 303 300 296 302 313 324 320 325 333 338 318 317 324 344 345 16 32 43 6 11 57 72 70 77 91 82 83 85 91 92 94 94 90 87 90 78 74 77 77 81 82 79 72 67 64 67 74 69 49 40 46 47 56 56 31 41 63 43 19 42 52 44 7 17 18 357 9 32 13 7 22 27 28 21 18 27 43 65 64 63 68 72 71 58 47 22
299 295 289 305 322 320 314 319 327 330 339 330 329 323 324 350 12 50 77 26 66 69 85 83 76 68 80 75 69 65 73 80 82 83 90 88 79 73 83 91 89 87 84 84 86 82 80 78 72 64 56 42 45 44 37 47 35 34 29 42 63 43 31 39 344 341 16 5 30 26 19 30 22 23 27 29 37 38 43 46 56 65 70 69 70 55 29
289 290 298 297 296 300 302 311 316 312 311 296 319 324 326 346 34 8 8 25 54 65 63 82 99 93 91 97 98 101 96 88 83 86 87 85 82 75 67 65 72 73 71 68 71 72 72 74 73 64 53 55 54 55 44 41 38 50 40 40 41 42 30 31 25 22 21 25 33 42 38 41 38 25 29 39 44 46 43 43 43 44 54 60 70 65 39
272 280 284 288 288 284 292 301 312 330 326 320 322 334 343 3 33 54 23 61 71 82 80 85 92 92 79 72 93 99 94 100 105 101 93 90 86 80 78 78 77 76 74 71 65 60 52 49 58 70 65 52 40 38 26 31 49 45 54 55 52 44 44 33 31 35 21 24 38 44 46 44 41 31 34 36 35 37 49 41 32 34 34 35 32 43 61
265 268 277 283 280 290 289 305 312 327 286 277 293 337 7 27 37 45 45 78 86 83 76 76 85 92 88 84 71 63 63 60 73 94 101 97 93 94 88 81 78 76 73 67 57 53 46 51 61 65 63 50 56 50 23 1 59 53 57 55 55 62 59 48 43 34 30 16 21 36 53 59 65 55 42 38 38 35 42 41 34 29 31 29 27 24 29
276 276 283 287 300 289 285 290 317 11 336 314 338 26 51 63 60 73 64 51 60 72 71 76 81 83 85 84 87 83 73 75 74 68 65 72 84 87 83 79 75 75 71 66 52 50 51 49 55 64 71 65 73 53 20 3 46 38 13 59 79 54 43 46 39 35 42 33 18 15 18 37 50 57 50 48 45 41 37 39 33 30 31 26 25 19 20
286 279 267 266 267 290 295 291 137 156 153 146 87 68 59 74 79 75 75 78 78 81 76 71 73 75 68 62 61 71 78 82 83 82 76 70 68 69 66 68 73 71 71 68 53 48 34 45 52 41 43 49 42 33 15 359 346 49 44 34 33 41 56 49 48 41 25 25 21 20 15 23 24 32 36 44 47 52 41 36 35 23 26 26 28 24 21
272 264 256 251 256 244 223 206 148 140 167 153 107 92 85 90 90 85 82 86 90 99 103 106 101 91 93 97 93 80 70 65 68 74 83 81 74 72 71 64 59 54 63 64 61 51 38 47 40 41 26 22 17 34 8 347 326 2 67 65 48 38 35 38 48 52 48 44 38 16 29 14 27 30 31 28 29 63 104 103 60 29 25 34 15 21 18
271 274 269 255 241 196 206 136 109 120 127 105 110 113 108 101 96 99 103 100 87 91 103 106 102 103 104 103 106 104 98 93 94 90 87 93 95 89 83 73 67 70 62 62 56 35 25 49 60 43 32 45 22 355 331 348 348 49 42 57 50 44 45 32 33 38 33 14 9 4 8 17 48 40 29 8 11 16 16 9 9 18 9 14 10 26 9
268 276 298 288 248 224 197 151 170 114 133 123 119 120 117 111 110 108 105 99 94 87 81 80 83 83 84 89 91 93 99 104 106 106 107 92 86 81 78 70 59 62 62 62 51 53 41 30 23 59 50 25 360 356 338 43 34 48 53 51 44 56 89 69 76 67 60 42 27 16 7 355 17 33 17 8 13 25 18 7 357 10 20 3 351 7 25
273 320 297 270 283 320 101 144 127 131 130 118 116 116 108 106 106 101 91 84 83 83 82 81 84 85 83 85 87 88 86 76 67 61 65 78 87 96 90 80 64 77 92 102 86 68 51 50 40 26 19 14 25 2 7 50 63 65 47 51 68 46 22 21 31 63 87 92 84 77 46 358 18 47 46 23 6 30 29 3 5 17 13 11 16 14 11
297 272 262 311 334 101 146 140 127 126 114 111 106 103 103 103 100 95 93 91 91 93 96 101 103 100 98 96 89 83 79 82 82 80 81 76 71 73 89 90 66 64 77 65 64 67 62 63 49 37 8 3 356 18 44 44 43 45 59 64 51 49 45 35 29 26 25 18 19 34 30 7 15 17 23 42 23 23 22 4 9 14 19 6 7 5 14
68 82 69 91 164 180 135 116 118 124 122 112 104 98 101 97 97 100 101 100 98 99 105 109 110 115 121 121 122 125 121 112 105 95 88 84 78 63 63 76 63 47 51 66 65 71 66 51 37 6 6 11 21 47 44 47 46 52 46 39 38 40 38 39 38 33 25 23 17 13 14 359 10 38 34 37 14 12 40 10 3 359 12 356 354 353 17
78 81 120 146 146 122 126 122 117 114 104 101 103 104 96 91 83 81 80 78 77 74 70 73 75 77 70 61 59 62 63 84 112 119 108 93 88 78 57 63 66 74 69 64 69 67 56 38 10 359 358 38 48 46 49 49 50 45 46 47 40 36 39 38 35 37 33 23 15 12 10 2 11 29 28 22 42 13 37 12 354 342 351 356 357 354 354
96 135 113 127 134 118 113 108 105 106 107 102 94 85 89 89 88 84 85 86 85 82 84 88 95 94 88 84 83 81 76 65 54 48 54 70 75 74 69 73 100 94 91 86 82 74 53 25 8 347 9 38 59 69 60 56 52 51 47 45 43 39 38 34 36 43 41 29 19 8 14 12 7 17 25 4 13 15 39 20 343 348 5 8 357 347 336
64 78 126 136 114 104 104 105 108 105 105 105 101 100 98 98 97 94 94 96 101 103 103 99 93 94 96 94 97 93 87 81 79 80 87 89 86 84 77 69 64 66 77 76 72 55 39 11 5 341 7 64 56 58 52 62 61 63 52 47 43 40 37 31 30 32 37 30 17 11 17 27 18 13 8 7 13 18 12 7 351 7 23 10 344 331 345
76 63 84 94 94 101 104 108 107 98 92 96 104 104 102 96 98 106 114 122 123 122 115 116 114 116 119 125 119 108 103 117 112 109 107 108 110 106 97 98 111 115 103 92 85 63 31 351 350 348 36 74 67 61 59 55 58 54 58 58 51 43 41 36 28 21 25 27 29 18 13 27 29 14 2 11 22 15 12 7 355 19 21 357 338 342 349
70 70 62 67 68 63 77 89 93 99 100 100 103 107 108 108 105 106 111 118 123 119 112 100 86 73 63 53 59 76 78 74 88 102 105 109 110 113 114 120 128 128 118 110 105 101 86 44 7 18 77 61 58 59 66 64 49 47 44 39 70 61 47 49 48 26 19 13 39 34 17 18 22 13 10 24 22 14 10 6 4 11 5 346 339 351 359
75 83 84 78 77 69 55 60 71 90 108 110 112 120 131 129 122 121 118 110 102 107 105 107 112 108 95 94 93 97 98 102 103 104 103 95 96 102 116 117 109 112 122 123 123 129 172 175 89 72 81 82 69 52 37 41 79 55 56 48 32 52 44 29 78 68 38 25 21 46 35 24 23 28 18 32 22 221 287 38 313 215 200 239 326 8 9
74 80 80 79 76 71 68 68 64 47 48 76 99 94 106 115 123 130 110 96 98 98 98 98 95 103 110 111 109 106 102 101 104 110 113 119 123 135 149 161 178 184 175 166 123 93 85 73 50 26 39 37 85 79 39 351 342 115 87 69 56 11 50 83 47 50 21 11 30 341 281 192 173 184 233 209 216 192 215 279 324 4 19 360 335 344 341
77 78 78 81 81 74 67 64 65 55 41 39 54 88 100 96 94 100 109 109 108 108 109 112 111 106 107 110 111 110 115 119 122 120 130 144 155 145 151 162 156 168 190 177 161 172 126 112 121 100 87 44 351 35 35 257 349 7 353 13 288 336 16 351 137 71 60 12 300 293 17 26 10 5 357 348 5 3 15 16 16 356 349 343 344 342 342